Location: Casone le Fosse
(44.6547°N, 12.1103°E)
Time: 12:07:05
(UTC+00:00)

Okean O Rocket - Pass Details

Date: 29 October 2020
Orbit: 623 x 644 km, 98.2° (Epoch: 27 November)

Event Time Altitude Azimuth Distance (km) Brightness Sun altitude
Rises 17:21:11 0° 192° (SSW) 2,907 5.2 -14.2°
Reaches altitude 10° 17:23:38 10° 204° (SSW) 2,001 4.6 -14.6°
Maximum altitude 17:27:23 28° 264° (W) 1,178 3.8 -15.3°
Drops below altitude 10° 17:31:10 10° 324° (NW) 2,006 4.6 -16.0°
Sets 17:33:37 0° 336° (NNW) 2,917 5.3 -16.4°
